{"data":{"norad_id":64021,"epoch":"2026-09-20T21:46:54.352992Z","epoch_age_seconds":108182,"freshness":"FRESH","line1":"1 64021U 25101AD  26263.90757353  .00013925  00000+0  51428-3 0  9992","line2":"2 64021  43.0009 335.2660 0001582 269.0448  91.0222 15.27599222 76918","mean_motion":15.27599222,"eccentricity":0.0001582,"inclination_deg":43.0009,"raan_deg":335.266,"arg_perigee_deg":269.0448,"mean_anomaly_deg":91.0222,"bstar":0.00051428,"rev_number":7691,"period_min":94.265562541639,"perigee_km":481.90610852524,"apogee_km":484.076969595,"semimajor_km":6861.1285390601,"source":"CELESTRAK","updated_at":"2026-09-21T09:00:35.185423Z"}}